Location: Brachstadt
(48.6975°N, 10.6755°E)
Time: 09:25:37
(UTC+00:00)

Resurs 01 Rocket - Visible Passes

Search period start: 20 June 2021 00:00
Search period end: 30 June 2021 00:00
Orbit: 633 x 645 km, 97.9° (Epoch: 19 June)

Date Brightness Start Highest point End Pass type
(mag) Time Alt. Az. Time Alt. Az. Time Alt. Az.
20 Jun 4.1 21:03:12 10° SW 21:06:06 17° W 21:09:02 10° NW visible
21 Jun 4.5 21:29:10 10° W 21:29:35 10° W 21:29:58 10° W visible
22 Jun 2.4 20:11:18 10° S 20:15:35 50° W 20:19:54 10° NNW visible
23 Jun 3.3 20:35:00 10° SSW 20:38:52 30° W 20:42:48 10° NNW visible
24 Jun 4.0 20:59:09 10° SW 21:02:15 19° W 21:05:22 10° NW visible
25 Jun 4.4 21:24:24 10° WSW 21:25:42 11° W 21:27:01 10° WNW visible
26 Jun 2.3 20:07:26 10° S 20:11:45 55° W 20:16:06 10° NNW visible
27 Jun 3.2 20:31:04 10° SSW 20:35:02 33° W 20:39:02 10° NNW visible
28 Jun 3.9 20:55:07 10° SW 20:58:23 20° W 21:01:40 10° NW visible
29 Jun 4.3 21:20:02 10° WSW 21:21:49 12° W 21:23:37 10° WNW visible
